Hourly Weather Nizhnyj Tagil

Today, 11 July, Saturday

Time Temperature Precipitation Wind Pressure Humidity
00:00 +24°C° 0 mm 1 mps 733 mmHg 78%
01:00 +23°C° 0 mm 1 mps 733 mmHg 79%
02:00 +23°C° 0 mm 1 mps 733 mmHg 83%
03:00 +22°C° 0 mm 1 mps 733 mmHg 87%
04:00 +22°C° 0 mm 1 mps 733 mmHg 90%
05:00 +23°C° 0 mm 2 mps 733 mmHg 85%
06:00 +25°C° 0 mm 2 mps 733 mmHg 80%
07:00 +26°C° 0 mm 2 mps 733 mmHg 75%
08:00 +27°C° 0.6 mm 3 mps 733 mmHg 71%
09:00 +27°C° 0.6 mm 3 mps 733 mmHg 68%
10:00 +28°C° 0.6 mm 3 mps 733 mmHg 64%
11:00 +29°C° 0 mm 4 mps 733 mmHg 59%
12:00 +29°C° 0 mm 4 mps 733 mmHg 54%
13:00 +30°C° 0 mm 5 mps 734 mmHg 49%
14:00 +29°C° 0.1 mm 5 mps 734 mmHg 51%
15:00 +28°C° 0.1 mm 5 mps 734 mmHg 53%
16:00 +28°C° 0.1 mm 4 mps 734 mmHg 55%
17:00 +27°C° 0 mm 4 mps 734 mmHg 59%
18:00 +25°C° 0 mm 3 mps 734 mmHg 62%
19:00 +24°C° 0 mm 3 mps 734 mmHg 66%
20:00 +22°C° 0 mm 3 mps 734 mmHg 67%
21:00 +20°C° 0 mm 3 mps 735 mmHg 69%
22:00 +18°C° 0 mm 3 mps 735 mmHg 70%
23:00 +18°C° 0 mm 2 mps 735 mmHg 73%

Tomorrow, 12 July, Sunday

Time Temperature Precipitation Wind Pressure Humidity
00:00 +17°C° 0 mm 2 mps 735 mmHg 77%
01:00 +16°C° 0 mm 2 mps 736 mmHg 80%
02:00 +15°C° 0 mm 2 mps 736 mmHg 81%
03:00 +15°C° 0 mm 1 mps 736 mmHg 81%
04:00 +15°C° 0 mm 1 mps 737 mmHg 81%
05:00 +18°C° 0 mm 1 mps 737 mmHg 75%
06:00 +19°C° 0 mm 1 mps 737 mmHg 69%
07:00 +21°C° 0 mm 1 mps 737 mmHg 63%
08:00 +23°C° 0 mm 2 mps 737 mmHg 57%
09:00 +24°C° 0 mm 2 mps 737 mmHg 51%
10:00 +25°C° 0 mm 3 mps 737 mmHg 45%
11:00 +26°C° 0 mm 3 mps 737 mmHg 43%
12:00 +27°C° 0 mm 3 mps 737 mmHg 42%
13:00 +27°C° 0 mm 3 mps 736 mmHg 40%
14:00 +28°C° 0 mm 3 mps 736 mmHg 40%
15:00 +28°C° 0 mm 3 mps 736 mmHg 41%
16:00 +28°C° 0 mm 3 mps 736 mmHg 42%
17:00 +27°C° 0 mm 3 mps 736 mmHg 49%
18:00 +26°C° 0 mm 3 mps 736 mmHg 55%
19:00 +24°C° 0 mm 2 mps 735 mmHg 62%
20:00 +23°C° 0 mm 2 mps 735 mmHg 68%
21:00 +20°C° 0 mm 2 mps 735 mmHg 74%
22:00 +18°C° 0 mm 2 mps 735 mmHg 80%
23:00 +18°C° 0 mm 2 mps 735 mmHg 82%

Day after tomorrow, 13 July, Monday

Time Temperature Precipitation Wind Pressure Humidity
00:00 +17°C° 0 mm 2 mps 735 mmHg 83%
01:00 +17°C° 0 mm 2 mps 735 mmHg 85%
02:00 +17°C° 0 mm 2 mps 735 mmHg 86%
03:00 +16°C° 0 mm 2 mps 735 mmHg 88%
04:00 +16°C° 0 mm 2 mps 735 mmHg 89%
05:00 +18°C° 0 mm 2 mps 735 mmHg 83%
06:00 +20°C° 0 mm 2 mps 736 mmHg 78%
07:00 +23°C° 0 mm 2 mps 736 mmHg 72%
08:00 +24°C° 0 mm 2 mps 736 mmHg 67%
09:00 +26°C° 0 mm 2 mps 736 mmHg 61%
10:00 +28°C° 0 mm 2 mps 736 mmHg 56%
11:00 +29°C° 0.1 mm 2 mps 736 mmHg 54%
12:00 +29°C° 0.1 mm 2 mps 736 mmHg 52%
13:00 +30°C° 0.1 mm 2 mps 736 mmHg 50%
14:00 +30°C° 0.2 mm 2 mps 736 mmHg 53%
15:00 +29°C° 0.2 mm 2 mps 736 mmHg 56%
16:00 +29°C° 0.2 mm 2 mps 736 mmHg 59%
17:00 +28°C° 0.1 mm 2 mps 736 mmHg 65%
18:00 +27°C° 0.1 mm 1 mps 736 mmHg 70%
19:00 +26°C° 0.1 mm 1 mps 736 mmHg 76%
20:00 +24°C° 0 mm 1 mps 736 mmHg 79%
21:00 +23°C° 0 mm 1 mps 736 mmHg 81%
22:00 +21°C° 0 mm 1 mps 736 mmHg 84%
23:00 +20°C° 0 mm 1 mps 736 mmHg 82%

14 July, Tuesday

Time Temperature Precipitation Wind Pressure Humidity
00:00 +19°C° 0 mm 1 mps 736 mmHg 81%
01:00 +18°C° 0 mm 1 mps 736 mmHg 79%
02:00 +18°C° 0 mm 1 mps 736 mmHg 79%
03:00 +16°C° 0 mm 1 mps 737 mmHg 78%
04:00 +16°C° 0 mm 1 mps 737 mmHg 78%
05:00 +19°C° 0 mm 1 mps 737 mmHg 75%
06:00 +20°C° 0 mm 1 mps 737 mmHg 72%
07:00 +22°C° 0 mm 1 mps 737 mmHg 69%
08:00 +24°C° 0 mm 2 mps 737 mmHg 64%
09:00 +27°C° 0 mm 2 mps 737 mmHg 59%
10:00 +29°C° 0 mm 3 mps 737 mmHg 53%
11:00 +30°C° 0 mm 3 mps 737 mmHg 49%
12:00 +31°C° 0 mm 3 mps 737 mmHg 45%
13:00 +33°C° 0 mm 3 mps 737 mmHg 40%
14:00 +33°C° 0 mm 3 mps 736 mmHg 43%
15:00 +33°C° 0 mm 3 mps 736 mmHg 45%
16:00 +32°C° 0 mm 2 mps 736 mmHg 47%
17:00 +31°C° 0 mm 2 mps 736 mmHg 52%
18:00 +30°C° 0 mm 2 mps 736 mmHg 58%
19:00 +29°C° 0 mm 2 mps 735 mmHg 63%
20:00 +27°C° 0 mm 2 mps 735 mmHg 67%
21:00 +25°C° 0 mm 2 mps 735 mmHg 71%
22:00 +23°C° 0 mm 2 mps 735 mmHg 74%
23:00 +21°C° 0 mm 2 mps 735 mmHg 77%

15 July, Wednesday

Time Temperature Precipitation Wind Pressure Humidity
00:00 +20°C° 0 mm 2 mps 735 mmHg 79%
01:00 +20°C° 0 mm 1 mps 735 mmHg 81%
02:00 +20°C° 0 mm 1 mps 735 mmHg 82%
03:00 +20°C° 0 mm 1 mps 735 mmHg 84%
04:00 +20°C° 0 mm 1 mps 736 mmHg 85%
05:00 +22°C° 0 mm 1 mps 736 mmHg 78%
06:00 +24°C° 0 mm 2 mps 736 mmHg 71%
07:00 +26°C° 0 mm 2 mps 736 mmHg 64%
08:00 +27°C° 0 mm 2 mps 736 mmHg 57%
09:00 +29°C° 0 mm 3 mps 736 mmHg 50%
10:00 +31°C° 0 mm 3 mps 736 mmHg 43%
11:00 +33°C° 0 mm 3 mps 735 mmHg 40%
12:00 +34°C° 0 mm 3 mps 735 mmHg 37%
13:00 +34°C° 0 mm 3 mps 735 mmHg 33%
14:00 +34°C° 0 mm 3 mps 735 mmHg 33%
15:00 +34°C° 0 mm 3 mps 735 mmHg 33%
16:00 +35°C° 0 mm 3 mps 734 mmHg 33%
17:00 +32°C° 0 mm 2 mps 734 mmHg 41%
18:00 +30°C° 0 mm 2 mps 734 mmHg 48%
19:00 +29°C° 0 mm 2 mps 734 mmHg 56%
20:00 +27°C° 0 mm 2 mps 733 mmHg 59%
21:00 +25°C° 0 mm 1 mps 733 mmHg 62%
22:00 +23°C° 0 mm 1 mps 733 mmHg 64%
23:00 +23°C° 0 mm 2 mps 733 mmHg 67%

16 July, Thursday

Time Temperature Precipitation Wind Pressure Humidity
00:00 +21°C° 0 mm 2 mps 733 mmHg 69%
01:00 +21°C° 0 mm 2 mps 733 mmHg 72%
02:00 +21°C° 0 mm 2 mps 733 mmHg 74%
03:00 +21°C° 0 mm 2 mps 733 mmHg 76%
04:00 +20°C° 0 mm 2 mps 733 mmHg 78%
05:00 +23°C° 0 mm 2 mps 733 mmHg 73%
06:00 +25°C° 0 mm 2 mps 733 mmHg 68%
07:00 +27°C° 0 mm 2 mps 733 mmHg 63%
08:00 +29°C° 0 mm 3 mps 733 mmHg 55%
09:00 +31°C° 0 mm 3 mps 733 mmHg 46%
10:00 +35°C° 0 mm 3 mps 733 mmHg 38%
11:00 +35°C° 0 mm 3 mps 732 mmHg 35%
12:00 +36°C° 0 mm 3 mps 732 mmHg 32%
13:00 +37°C° 0 mm 3 mps 732 mmHg 30%
14:00 +37°C° 0 mm 3 mps 732 mmHg 31%
15:00 +36°C° 0 mm 3 mps 732 mmHg 33%
16:00 +36°C° 0 mm 3 mps 731 mmHg 34%
17:00 +34°C° 0 mm 2 mps 731 mmHg 41%
18:00 +32°C° 0 mm 2 mps 731 mmHg 48%
19:00 +30°C° 0 mm 2 mps 730 mmHg 54%
20:00 +28°C° 0 mm 2 mps 731 mmHg 58%
21:00 +27°C° 0 mm 3 mps 731 mmHg 61%
22:00 +26°C° 0 mm 3 mps 731 mmHg 64%
23:00 +25°C° 0 mm 3 mps 730 mmHg 68%
Show more